Wind_Speed
74 77 78 79 80 81 80 78 75 75 79 57 58 46 35 50 48 66 60 59 63 68 63 63 64 56 57 55 58 57 55 57
81 82 85 87 88 89 87 85 84 81 56 54 60 60 54 57 65 64 69 66 54 58 60 54 57 60 61 62 60 59 59 59
87 89 91 93 95 94 90 87 79 72 42 50 55 60 56 55 60 58 61 52 51 56 62 60 59 60 61 61 62 61 64 63
89 91 93 94 93 92 89 84 77 63 42 50 55 56 57 54 58 63 59 62 50 60 64 64 61 61 62 63 64 70 71 69
98 97 96 94 94 92 87 80 72 54 33 48 56 62 60 60 66 68 68 63 62 63 69 73 74 71 73 75 76 70 69 76
96 94 95 97 88 78 74 71 68 66 62 56 61 58 64 71 70 69 70 69 76 83 85 83 74 76 83 81 77 77 70 68
96 95 93 87 77 73 73 71 69 70 66 66 65 66 65 66 70 71 76 77 82 84 90 92 90 89 90 89 93 91 89 86
95 93 83 74 73 73 71 73 73 71 69 70 71 70 70 72 75 76 78 83 86 90 93 95 98 99 100 102 101 99 95 96
97 87 77 72 71 74 75 74 72 74 75 74 74 74 74 73 74 76 78 81 80 81 87 94 99 103 106 107 106 102 98 97
91 78 76 75 73 75 76 77 77 78 80 82 82 81 81 82 81 82 83 86 87 88 91 91 92 96 99 103 105 105 102 101
79 79 80 76 76 77 77 79 81 83 84 84 84 84 86 87 88 90 91 93 94 95 94 96 96 95 94 100 104 105 104 105
79 81 81 83 83 81 83 84 85 86 88 89 90 89 90 93 95 96 98 100 99 97 97 96 94 92 92 95 101 105 107 107
83 85 88 87 88 90 91 92 93 95 95 94 95 97 97 99 101 101 102 102 101 99 95 93 90 90 92 94 96 99 102 104
89 91 91 92 94 96 96 97 99 99 101 102 102 102 101 101 102 104 105 103 98 92 90 90 91 92 95 97 99 99 100 102
93 94 96 98 101 101 100 102 102 104 107 108 108 103 104 103 101 97 91 88 87 85 87 89 91 93 96 98 99 101 102 102
96 100 102 103 104 104 104 105 107 108 110 112 112 108 104 98 93 89 85 84 84 84 86 88 90 92 94 95 96 98 100 98
102 103 105 104 104 105 106 108 109 108 110 111 108 106 97 88 84 82 82 81 82 82 84 85 86 86 88 89 90 91 92 89
103 102 103 102 104 105 107 105 103 103 104 102 100 96 88 82 77 75 75 74 75 76 77 79 81 82 82 83 84 85 85 83
102 104 104 101 100 101 96 95 96 94 94 97 93 86 80 73 70 71 70 69 71 72 74 75 76 77 79 78 78 78 76 74
Wind_Direction
289 290 291 293 294 294 295 296 299 299 303 297 291 284 297 279 286 283 284 286 285 289 290 285 286 282 279 278 278 275 276 278
291 292 294 296 297 297 298 298 298 298 299 284 284 281 279 270 273 285 281 285 286 292 291 287 287 281 278 278 273 270 273 275
292 294 295 296 296 297 298 300 300 302 287 288 285 285 286 278 275 270 280 284 285 283 280 281 280 275 281 277 278 273 276 273
294 295 296 298 300 301 300 301 301 297 279 282 284 282 282 274 270 272 265 272 277 276 278 281 280 275 272 271 271 278 282 282
295 297 299 301 303 305 305 304 301 292 266 267 269 274 271 273 274 272 270 263 262 264 269 272 275 273 273 273 276 280 276 283
297 300 304 305 305 301 298 295 293 291 290 278 280 276 276 280 276 270 269 266 261 270 268 267 266 267 271 271 274 279 275 270
301 303 306 305 298 290 290 289 288 287 285 284 282 280 278 273 269 274 266 266 269 271 269 269 267 268 270 269 269 271 271 271
303 307 305 298 290 288 289 288 289 286 284 283 280 279 277 275 270 271 266 268 266 266 267 267 268 268 268 269 270 270 269 269
302 303 301 296 289 286 286 288 288 288 289 288 287 285 282 280 277 274 272 271 274 271 271 271 269 267 268 269 269 271 271 270
300 297 296 295 291 288 289 287 286 285 286 287 286 285 285 284 282 282 283 283 283 282 281 279 273 271 268 267 268 269 269 271
294 294 294 293 292 291 289 289 289 288 287 286 285 285 285 285 285 285 286 286 286 286 284 282 279 275 266 264 266 267 268 269
294 293 293 293 291 289 288 290 290 290 289 289 288 287 286 285 285 286 287 288 287 285 284 281 278 274 269 265 262 262 263 263
292 293 293 293 293 294 294 292 292 291 290 288 287 286 285 286 286 286 286 287 285 285 282 279 276 273 272 269 267 265 265 266
296 298 296 293 291 291 291 291 290 289 290 291 291 290 289 289 289 289 288 287 285 282 280 277 274 272 271 270 270 269 268 267
296 295 293 291 291 291 292 292 292 290 290 290 289 290 291 291 290 289 287 285 281 279 277 275 273 270 270 271 271 271 272 272
293 290 290 290 291 292 291 291 290 290 290 290 292 293 293 294 292 289 287 284 280 279 278 276 275 274 274 274 274 274 274 275
290 290 290 291 292 292 292 291 290 289 289 291 293 293 295 295 292 288 285 283 281 280 279 278 278 277 275 275 275 275 274 275
291 291 292 293 294 291 291 292 294 293 292 292 292 295 297 295 291 289 286 284 282 281 281 280 279 278 277 276 275 275 276 276
294 294 295 294 293 295 293 297 296 296 295 294 296 296 296 293 292 289 286 285 284 284 283 282 281 280 279 279 278 277 278 277
Height
10760 10755 10750 10746 10744 10742 10744 10746 10749 10744 10733 10723 10719 10718 10725 10710 10694 10700 10692 10687 10684 10681 10676 10674 10673 10672 10673 10675 10674 10674 10671 10670
10745 10740 10734 10731 10727 10725 10726 10729 10730 10728 10720 10710 10705 10702 10707 10707 10697 10689 10684 10678 10672 10667 10661 10658 10656 10655 10657 10658 10659 10659 10659 10658
10730 10726 10720 10715 10711 10707 10705 10708 10710 10711 10703 10695 10688 10686 10684 10682 10680 10670 10666 10663 10658 10651 10648 10643 10640 10637 10638 10639 10641 10644 10644 10644
10712 10708 10704 10698 10693 10689 10686 10683 10687 10688 10686 10678 10672 10669 10667 10662 10661 10658 10652 10649 10645 10637 10633 10630 10627 10623 10622 10621 10623 10625 10626 10627
10694 10690 10685 10678 10673 10666 10663 10660 10662 10664 10664 10657 10654 10652 10650 10647 10644 10640 10639 10637 10630 10622 10618 10615 10614 10610 10607 10603 10605 10604 10605 10608
10677 10671 10666 10659 10652 10648 10644 10640 10638 10636 10640 10641 10636 10635 10635 10631 10627 10624 10622 10621 10612 10607 10602 10599 10596 10591 10588 10588 10587 10586 10585 10586
10661 10654 10647 10640 10635 10630 10626 10624 10623 10622 10620 10618 10615 10614 10613 10610 10606 10606 10603 10601 10598 10592 10586 10582 10579 10574 10571 10569 10567 10569 10569 10568
10642 10636 10631 10626 10621 10616 10610 10606 10603 10602 10601 10599 10596 10594 10592 10589 10586 10583 10581 10578 10576 10572 10566 10562 10559 10554 10550 10548 10544 10544 10543 10544
10625 10619 10613 10608 10603 10599 10595 10591 10586 10582 10580 10578 10575 10572 10568 10566 10565 10561 10557 10554 10551 10547 10544 10538 10534 10530 10528 10523 10521 10517 10517 10517
10605 10599 10595 10591 10587 10583 10579 10574 10569 10565 10560 10556 10552 10549 10546 10542 10539 10536 10531 10527 10523 10518 10513 10511 10507 10502 10497 10495 10493 10490 10489 10488
10585 10580 10576 10573 10569 10563 10557 10553 10549 10545 10540 10534 10528 10524 10519 10515 10511 10507 10503 10499 10493 10487 10480 10476 10471 10469 10467 10465 10464 10462 10461 10460
10569 10562 10556 10552 10548 10544 10536 10531 10526 10519 10513 10508 10502 10498 10493 10488 10483 10479 10473 10468 10462 10455 10448 10442 10439 10436 10435 10435 10433 10432 10433 10432
10551 10546 10539 10532 10522 10515 10512 10506 10500 10493 10487 10483 10478 10472 10467 10461 10455 10450 10444 10438 10430 10423 10416 10411 10409 10407 10406 10404 10402 10402 10402 10401
10525 10520 10512 10506 10501 10494 10490 10484 10477 10467 10457 10448 10443 10439 10435 10429 10422 10415 10408 10402 10396 10390 10386 10383 10380 10378 10375 10373 10371 10371 10371 10371
10502 10496 10489 10482 10475 10469 10462 10454 10446 10437 10427 10418 10411 10409 10404 10400 10393 10383 10375 10368 10363 10360 10357 10353 10352 10350 10346 10344 10342 10340 10338 10337
10476 10470 10462 10455 10448 10443 10435 10426 10415 10406 10397 10387 10381 10378 10371 10365 10357 10350 10345 10341 10336 10332 10329 10326 10324 10322 10320 10317 10315 10311 10308 10305
10448 10443 10436 10429 10423 10416 10407 10396 10388 10379 10369 10360 10353 10346 10342 10335 10328 10321 10316 10313 10309 10306 10303 10301 10298 10295 10292 10289 10285 10282 10279 10278
10426 10419 10410 10403 10393 10383 10376 10369 10359 10349 10341 10331 10324 10318 10313 10306 10298 10294 10290 10287 10284 10280 10278 10275 10271 10267 10264 10260 10257 10253 10250 10250
10397 10388 10380 10374 10363 10356 10347 10338 10330 10323 10315 10306 10300 10295 10289 10281 10274 10271 10266 10263 10259 10256 10252 10248 10244 10240 10236 10232 10230 10226 10225 10224